Temperature
15 15 15 15 15 15 15 15 15 15 15 15 15 15 15 15 15 16 16 16 16 16 16 16 16 17 17 17 17 17 17 17 17 17 18 18 18 18 18 18 18 18 18
15 15 15 15 15 15 15 15 15 15 15 15 15 15 15 15 15 15 16 16 16 16 16 16 16 16 17 17 17 17 17 17 17 17 17 18 18 18 18 18 18 18 18
15 15 15 15 15 15 15 15 15 15 15 15 15 15 15 15 15 15 15 15 16 16 16 16 16 16 16 17 17 17 17 17 17 17 17 17 17 18 17 18 18 18 18
15 15 15 15 15 14 14 15 15 15 15 15 15 15 15 15 15 15 15 15 15 16 16 16 16 16 16 16 17 17 17 17 17 17 17 17 17 17 17 17 17 18 18
15 15 15 15 14 14 14 14 15 15 15 15 15 15 15 15 15 15 15 15 15 15 16 16 16 16 16 16 16 17 17 17 17 17 17 17 17 17 17 17 17 18 18
15 15 15 15 14 14 14 14 14 14 15 15 15 15 15 15 15 15 15 15 15 15 15 16 16 16 16 16 16 16 16 16 16 17 17 17 17 17 17 17 17 17 17
15 15 15 14 14 14 14 14 14 14 15 15 15 15 15 15 15 15 15 15 15 15 15 16 16 16 16 16 16 16 16 16 16 16 17 17 17 17 17 17 17 17 17
15 15 14 14 14 14 14 14 14 14 14 14 14 14 14 15 15 15 15 15 15 15 15 15 15 16 16 16 16 16 16 16 16 16 17 17 17 17 17 17 17 17 17
15 14 14 14 14 14 14 14 14 14 14 14 14 14 14 14 14 14 15 15 15 15 15 15 15 15 16 16 16 16 16 16 16 16 16 16 17 17 17 17 17 17 17
15 14 14 14 14 14 14 14 14 14 14 14 14 14 14 14 14 14 14 14 15 15 15 15 15 15 15 15 16 16 16 16 16 16 16 16 16 16 16 17 17 17 17
15 15 14 14 14 14 14 14 14 14 14 13 13 14 14 14 14 13 14 14 15 15 15 15 15 15 15 15 15 15 16 16 16 16 16 16 16 16 16 16 16 16 16
15 15 14 14 14 14 14 14 14 13 13 13 13 13 13 13 13 13 13 14 14 14 15 15 15 15 15 15 15 15 15 15 16 16 16 16 16 16 16 16 16 16 16
15 15 15 14 14 14 14 14 14 13 13 13 13 13 13 13 13 13 13 13 14 14 14 15 15 15 15 15 15 15 15 15 15 15 16 16 16 16 16 16 16 16 16
15 15 15 14 14 14 14 14 14 14 13 13 13 13 13 13 13 13 13 13 13 14 14 14 14 14 15 15 15 15 15 15 15 15 15 15 15 15 15 15 15 16 16
15 15 15 15 14 14 14 14 14 14 13 13 13 13 13 13 13 13 13 13 13 13 13 14 14 14 14 14 15 15 15 15 15 15 15 15 15 15 15 15 15 15 15
15 15 15 15 14 14 14 14 14 14 14 13 13 13 13 13 13 13 13 13 13 13 13 13 14 14 14 14 14 15 15 15 15 15 15 15 15 15 15 15 15 15 15
15 15 15 15 14 14 14 14 14 14 14 14 13 13 13 13 13 13 13 13 13 13 13 14 14 14 14 14 14 14 14 15 15 15 15 15 15 15 15 15 15 15 15
15 15 15 15 14 14 14 14 14 14 14 14 13 13 13 13 13 13 13 13 13 13 13 13 14 14 14 14 14 14 14 14 14 15 15 15 15 15 15 15 15 15 15
15 15 14 14 14 14 14 14 14 14 14 14 13 13 13 13 13 13 13 13 13 13 13 13 13 13 13 14 14 14 14 14 14 14 14 14 14 15 15 15 15 15 15
14 14 14 14 14 14 14 14 14 13 13 13 13 13 13 13 13 13 13 13 13 13 13 13 13 13 13 13 13 14 14 14 14 14 14 14 14 14 14 14 14 14 15
14 14 14 14 14 14 13 13 13 13 13 13 13 13 13 12 12 13 13 13 13 12 12 12 13 13 13 13 13 13 13 13 14 14 14 14 14 14 14 14 14 14 14
14 13 13 13 13 13 13 13 13 13 13 13 12 12 12 12 12 12 12 12 12 12 12 12 12 12 12 12 12 12 13 13 13 13 13 14 14 14 14 14 14 14 14
13 13 13 13 13 13 12 12 12 12 12 12 12 12 12 12 12 12 12 12 12 12 11 11 12 12 12 12 12 12 12 12 12 13 13 13 13 13 14 14 14 14 14
13 13 12 12 12 12 12 12 12 12 12 12 11 11 11 11 11 11 11 12 12 12 11 11 11 11 11 11 11 11 11 12 12 12 12 12 13 13 13 13 13 14 13
12 12 12 12 12 12 12 11 11 11 11 11 11 11 11 11 11 11 11 11 11 11 11 11 11 11 11 11 11 11 11 11 11 12 12 12 12 12 13 13 13 13 13
12 12 11 11 11 11 11 11 11 11 11 11 11 11 11 11 11 10 10 11 11 11 11 11 11 11 11 11 11 10 10 10 10 11 11 11 11 11 11 12 13 13 13
Wind_Speed
2 3 3 4 5 5 4 4 4 4 4 4 4 4 3 3 3 4 4 5 5 5 4 4 4 3 3 3 4 5 4 4 4 3 4 7 9 11 13 15 15 15 15
2 2 2 3 4 4 4 3 3 3 3 3 4 4 3 3 4 4 4 5 5 5 5 4 4 4 4 3 4 5 4 4 2 2 3 6 9 11 13 14 15 16 16
3 2 2 3 4 5 4 4 4 3 3 3 4 4 3 4 4 4 4 5 5 6 6 5 5 5 4 3 4 5 4 2 1 3 5 6 8 10 12 12 15 15 15
4 3 2 2 4 5 4 3 3 3 4 3 3 3 3 3 4 4 4 5 5 5 6 6 5 5 4 4 4 4 3 1 2 4 6 7 9 9 10 11 13 14 15
4 4 2 2 4 4 3 3 3 2 2 3 3 3 3 3 3 4 4 5 5 5 6 6 5 5 4 4 5 5 4 2 3 5 6 8 9 10 10 10 11 12 13
4 4 3 4 4 3 4 3 3 3 2 2 3 3 3 3 3 4 4 4 5 6 6 6 5 4 5 5 4 4 4 3 3 4 6 7 8 9 9 9 10 11 12
4 4 3 3 3 3 3 3 2 3 3 3 3 4 4 4 4 4 3 3 4 6 6 6 5 4 4 5 4 4 4 3 3 3 5 7 7 8 8 8 9 11 12
4 3 3 2 3 3 4 4 3 2 3 4 2 3 4 5 4 4 4 4 4 4 5 6 5 5 4 4 4 4 4 2 2 3 4 5 6 7 7 8 9 11 12
3 3 3 2 2 2 3 3 2 2 2 3 3 3 2 1 3 4 4 4 5 4 4 5 5 5 4 4 4 4 4 1 2 2 3 4 5 5 7 8 10 10 11
3 3 3 3 2 2 2 2 2 1 2 2 2 2 1 2 1 3 4 4 5 4 5 4 4 5 5 4 4 3 3 2 1 2 2 3 3 5 7 9 9 10 10
3 3 2 2 2 2 2 2 3 2 1 1 1 1 1 2 1 1 2 4 4 4 4 3 3 4 5 4 4 3 2 1 0 1 2 3 3 4 7 8 9 9 9
2 2 2 2 2 1 2 1 2 2 1 1 1 1 1 1 0 1 1 2 3 3 3 3 3 3 4 4 4 4 2 1 1 2 2 3 3 3 5 7 8 9 9
2 2 1 1 1 1 2 1 2 2 2 1 1 0 0 1 1 1 1 1 2 3 3 3 3 4 4 5 5 5 3 1 2 2 2 3 4 4 4 6 7 8 9
2 2 1 1 1 1 2 2 2 2 2 2 2 1 0 1 1 1 1 1 2 3 3 4 3 3 5 5 5 5 3 2 2 3 3 4 4 5 6 6 7 8 8
1 1 0 1 1 1 1 1 2 2 2 2 2 2 1 1 0 0 1 2 2 1 2 3 3 3 5 5 5 4 3 3 2 3 4 5 6 6 5 6 7 8 8
1 1 1 1 2 2 2 1 1 2 2 2 1 2 2 1 1 0 0 1 2 2 2 2 3 3 4 5 5 4 4 3 3 3 5 6 6 7 7 7 7 8 9
1 1 1 2 2 2 2 2 2 2 2 3 3 2 2 2 2 1 1 0 1 2 2 3 2 3 3 4 5 5 4 3 3 4 5 6 6 7 7 8 8 8 9
2 2 2 2 2 2 2 2 2 2 2 2 3 3 3 2 2 2 1 1 1 2 2 3 3 2 3 3 4 4 4 3 3 4 5 5 6 6 7 8 8 8 9
3 3 3 3 3 3 2 2 2 2 2 2 2 2 3 2 2 2 2 1 1 1 1 2 3 2 2 2 3 3 3 3 3 4 4 5 6 7 8 9 9 10 10
3 3 3 3 3 3 3 3 2 3 3 3 2 2 2 2 2 2 2 2 1 1 1 1 2 2 2 3 2 2 3 3 3 3 3 4 5 6 8 9 10 10 11
4 3 3 4 3 3 3 3 2 3 3 3 4 3 3 3 3 2 2 2 1 1 1 1 2 2 3 2 2 2 3 4 3 2 2 2 2 3 5 8 10 11 12
3 4 4 3 4 3 5 4 3 2 2 3 3 4 4 4 5 6 6 4 2 1 2 2 2 3 4 3 3 3 2 3 3 2 1 3 2 4 4 6 9 11 13
3 4 3 3 3 4 6 5 4 2 2 2 2 3 4 5 5 4 6 6 5 4 3 3 3 5 4 4 3 3 3 4 5 3 2 4 3 5 5 8 10 12 13
2 2 2 2 2 4 6 5 5 2 2 2 2 3 3 5 5 4 4 4 5 5 5 4 5 6 6 5 4 4 5 4 4 4 3 4 4 4 5 6 11 13 14
2 1 1 2 2 4 6 6 4 2 2 4 4 3 4 4 7 7 3 4 6 6 7 7 8 9 10 9 6 2 3 3 5 4 3 3 3 4 4 5 8 12 14
0 1 1 2 2 3 6 6 4 1 2 4 4 4 6 6 8 7 3 4 6 7 6 7 7 7 7 8 7 5 5 5 5 4 4 4 3 2 3 3 4 6 8
Wind_Direction
49 34 23 20 17 17 19 14 17 18 16 15 23 31 20 12 4 360 347 346 348 346 335 329 322 318 319 315 311 309 301 284 261 247 223 195 187 179 170 165 163 162 161
74 49 24 16 13 10 14 23 21 19 13 15 17 21 18 14 5 3 359 358 353 350 346 338 326 320 319 324 322 315 314 304 249 189 156 166 164 163 162 163 165 164 164
76 67 40 19 4 6 17 27 26 26 24 23 15 10 16 12 8 8 7 5 358 353 357 354 335 331 329 324 325 322 320 322 210 157 145 142 141 149 157 160 166 165 167
72 67 48 16 5 17 23 27 27 27 22 18 12 6 7 5 5 9 13 10 7 0 358 1 353 354 353 348 342 341 342 360 128 140 140 141 143 143 149 153 159 164 167
58 65 49 18 21 30 23 24 35 34 23 12 13 19 10 11 2 14 15 11 10 7 3 2 9 12 14 5 354 352 5 53 108 135 140 141 144 146 149 154 158 164 167
51 60 51 32 34 38 26 27 36 31 24 2 24 26 11 6 8 18 12 11 10 9 10 13 13 17 22 13 4 9 38 68 78 124 137 139 142 145 148 155 160 162 165
47 56 48 34 32 41 28 25 36 33 18 3 34 14 360 8 18 16 8 14 14 9 11 16 13 14 13 13 15 19 29 62 85 119 135 140 143 151 156 159 158 158 157
33 52 54 37 27 34 29 27 37 36 17 23 58 53 8 355 357 4 8 18 12 10 13 10 9 10 8 10 7 17 22 56 94 121 138 143 149 157 163 161 161 159 157
34 49 53 49 34 42 28 20 36 63 33 14 45 97 92 339 324 340 360 11 6 7 1 360 4 2 4 8 8 7 18 56 134 130 132 143 152 160 166 165 165 164 164
26 34 47 50 46 41 29 8 41 55 75 24 11 42 111 162 86 340 339 351 359 3 356 356 358 359 3 5 1 1 11 23 131 152 141 134 135 143 156 159 160 162 167
11 27 38 43 39 30 27 26 30 39 64 77 31 22 52 57 81 120 326 333 345 341 345 340 348 357 356 359 351 343 340 336 296 172 166 158 153 147 149 156 161 168 174
341 1 23 30 23 15 12 18 30 37 37 53 50 70 95 86 84 132 243 312 327 319 334 341 349 349 348 351 349 348 341 305 256 231 194 182 190 184 175 169 172 177 181
322 321 345 352 351 348 1 22 36 25 21 32 21 16 145 195 176 165 159 294 327 320 335 341 338 348 350 353 346 347 336 311 279 250 223 209 211 212 206 195 192 189 189
264 281 298 319 342 356 15 34 38 14 21 15 8 5 352 302 183 173 171 152 355 341 342 323 323 342 345 346 339 342 337 311 270 248 237 229 223 220 218 214 211 202 199
274 308 345 356 358 12 20 40 35 11 18 15 6 8 2 332 340 218 184 172 158 329 316 310 319 327 336 338 338 341 327 308 279 251 239 231 230 230 228 224 222 213 210
9 37 35 30 18 17 22 43 12 4 22 0 358 16 8 343 347 350 187 183 173 181 257 289 287 302 320 328 332 333 320 302 284 260 244 236 233 230 229 226 219 215 212
50 61 56 53 38 26 26 40 14 14 22 2 4 14 351 345 356 352 1 170 188 178 235 285 282 301 320 323 330 333 322 307 290 273 256 241 235 229 224 223 218 212 210
49 54 61 61 45 36 30 33 16 20 28 6 355 11 350 2 4 351 357 334 259 217 216 281 305 316 312 315 318 319 323 315 294 279 260 248 240 233 229 226 220 212 208
59 51 61 60 47 38 33 26 32 30 30 12 3 11 346 9 356 344 351 342 317 312 224 251 291 300 305 322 331 326 322 322 310 294 271 252 244 238 236 233 227 221 216
71 59 55 51 49 45 38 31 38 37 25 12 7 4 348 347 315 317 334 323 327 335 317 291 295 305 301 312 328 330 327 322 310 313 297 271 252 242 240 240 235 229 224
68 65 59 42 35 42 40 43 42 41 30 16 7 0 354 357 354 342 336 311 315 312 313 304 302 312 309 320 310 304 303 308 300 276 287 282 263 257 252 247 243 235 229
53 60 56 46 33 29 30 43 58 46 32 20 358 347 347 360 357 355 349 341 324 277 268 270 283 286 287 279 282 293 297 310 300 288 280 283 253 252 249 246 245 239 234
58 56 45 43 24 0 18 32 42 63 33 359 341 337 346 355 355 341 339 343 332 314 277 242 254 263 269 267 270 281 273 268 268 275 270 276 264 260 253 247 243 239 235
63 53 34 26 15 357 12 21 28 43 9 331 313 303 307 316 326 335 331 330 316 304 287 268 249 257 261 256 242 255 264 275 279 272 236 261 263 261 266 254 244 237 235
53 32 17 16 1 335 354 6 24 18 344 320 310 304 299 295 315 331 327 311 309 305 298 286 282 282 283 279 267 263 273 276 283 278 235 239 263 273 271 261 251 240 235
115 32 7 346 328 318 338 353 5 4 326 314 313 309 307 308 315 321 300 289 295 295 302 307 302 298 290 284 272 241 238 252 266 272 237 222 252 260 273 258 247 243 238
Height
1538 1538 1537 1536 1535 1534 1534 1533 1533 1532 1532 1531 1531 1531 1531 1531 1531 1531 1532 1532 1532 1532 1532 1532 1532 1532 1532 1532 1531 1530 1530 1528 1527 1524 1520 1519 1522 1526 1530 1535 1540 1545 1549
1539 1538 1537 1536 1535 1534 1534 1533 1532 1532 1531 1531 1531 1530 1530 1531 1531 1531 1532 1532 1532 1532 1532 1532 1532 1532 1531 1531 1530 1529 1528 1527 1526 1524 1521 1518 1521 1524 1529 1534 1539 1544 1548
1540 1539 1538 1536 1535 1534 1534 1533 1532 1532 1532 1531 1531 1530 1530 1530 1530 1531 1531 1532 1532 1531 1531 1531 1531 1531 1530 1530 1529 1528 1527 1526 1526 1525 1524 1523 1524 1526 1529 1532 1536 1543 1548
1540 1539 1538 1537 1535 1534 1534 1533 1532 1532 1531 1531 1530 1530 1530 1530 1530 1530 1531 1531 1531 1531 1531 1531 1531 1531 1530 1529 1529 1527 1526 1525 1526 1526 1527 1526 1527 1529 1532 1534 1538 1543 1547
1541 1540 1538 1537 1536 1535 1534 1533 1532 1532 1531 1531 1530 1530 1530 1530 1530 1530 1530 1531 1531 1531 1531 1531 1531 1530 1530 1529 1528 1526 1523 1523 1526 1528 1529 1530 1531 1533 1535 1538 1541 1544 1547
1542 1540 1539 1538 1536 1535 1534 1533 1533 1532 1531 1531 1531 1530 1530 1530 1530 1530 1530 1530 1531 1531 1531 1531 1531 1531 1530 1530 1529 1526 1524 1525 1527 1529 1530 1532 1533 1535 1537 1540 1542 1545 1547
1542 1541 1540 1539 1537 1536 1535 1534 1533 1533 1532 1532 1531 1531 1531 1531 1530 1530 1530 1530 1530 1531 1531 1531 1531 1531 1531 1530 1530 1529 1527 1528 1529 1530 1532 1533 1535 1537 1539 1541 1543 1545 1547
1543 1542 1541 1539 1538 1537 1536 1535 1534 1533 1533 1532 1532 1531 1531 1532 1531 1531 1530 1530 1530 1531 1531 1531 1531 1531 1531 1531 1531 1531 1530 1530 1531 1532 1533 1534 1536 1537 1539 1541 1544 1546 1548
1544 1543 1542 1540 1539 1538 1537 1536 1535 1534 1533 1533 1532 1533 1532 1532 1531 1532 1531 1531 1531 1531 1531 1531 1531 1531 1531 1531 1531 1531 1531 1531 1532 1533 1534 1535 1536 1536 1537 1540 1543 1546 1548
1544 1544 1542 1541 1540 1538 1537 1536 1536 1535 1534 1534 1533 1533 1533 1533 1533 1532 1532 1532 1531 1531 1531 1531 1531 1531 1531 1532 1532 1532 1532 1533 1533 1533 1534 1535 1535 1535 1535 1539 1543 1546 1548
1545 1544 1543 1542 1541 1539 1538 1537 1536 1536 1535 1534 1534 1533 1533 1533 1533 1533 1532 1532 1532 1531 1531 1531 1531 1531 1531 1532 1532 1532 1533 1533 1534 1534 1535 1535 1536 1536 1537 1540 1543 1545 1548
1545 1545 1544 1543 1541 1540 1539 1538 1537 1536 1535 1535 1534 1534 1533 1533 1533 1533 1532 1532 1531 1531 1531 1531 1531 1531 1531 1531 1532 1532 1533 1533 1534 1534 1535 1536 1536 1538 1539 1541 1543 1545 1547
1546 1545 1544 1543 1542 1541 1540 1539 1538 1537 1536 1535 1534 1534 1534 1533 1533 1533 1533 1532 1531 1531 1531 1531 1531 1531 1531 1531 1531 1532 1532 1533 1533 1534 1535 1536 1537 1538 1539 1541 1543 1545 1546
1546 1545 1545 1544 1543 1542 1541 1540 1539 1538 1537 1536 1535 1534 1534 1533 1533 1533 1533 1532 1531 1531 1531 1531 1531 1530 1530 1530 1530 1531 1531 1532 1532 1533 1534 1535 1536 1537 1539 1540 1542 1543 1545
1546 1545 1545 1544 1543 1542 1541 1540 1539 1538 1537 1536 1535 1535 1534 1534 1533 1533 1533 1533 1533 1531 1530 1530 1531 1530 1530 1530 1530 1530 1530 1531 1531 1532 1533 1534 1535 1536 1538 1539 1540 1542 1543
1546 1545 1545 1544 1543 1542 1541 1540 1539 1539 1538 1537 1536 1535 1534 1534 1533 1533 1533 1533 1532 1532 1531 1530 1530 1529 1529 1529 1529 1529 1529 1529 1530 1530 1531 1532 1533 1534 1535 1537 1538 1540 1541
1545 1544 1544 1543 1543 1542 1541 1540 1539 1538 1538 1537 1536 1535 1534 1534 1533 1533 1532 1532 1531 1531 1530 1529 1529 1528 1528 1527 1527 1527 1527 1527 1528 1528 1529 1530 1531 1532 1533 1534 1536 1537 1539
1544 1543 1543 1542 1542 1541 1540 1540 1539 1538 1537 1536 1536 1535 1534 1533 1532 1532 1531 1531 1530 1530 1529 1527 1527 1527 1526 1526 1525 1525 1525 1525 1526 1526 1527 1527 1528 1529 1530 1531 1533 1534 1535
1543 1542 1542 1541 1541 1540 1539 1539 1538 1537 1537 1536 1535 1534 1533 1532 1532 1531 1530 1529 1529 1528 1527 1526 1525 1525 1524 1524 1523 1523 1523 1523 1523 1523 1524 1525 1525 1526 1527 1528 1529 1530 1532
1541 1541 1541 1540 1540 1539 1538 1538 1537 1536 1536 1535 1534 1533 1532 1531 1530 1530 1529 1528 1527 1526 1525 1524 1523 1523 1522 1522 1521 1521 1520 1521 1521 1521 1521 1522 1522 1523 1523 1524 1525 1526 1528
1540 1540 1539 1539 1538 1538 1537 1536 1536 1535 1534 1533 1533 1532 1531 1530 1529 1528 1527 1526 1525 1524 1523 1522 1521 1520 1520 1519 1519 1518 1518 1517 1517 1518 1518 1518 1519 1519 1519 1520 1521 1522 1523
1539 1539 1538 1538 1537 1536 1536 1535 1534 1533 1533 1532 1531 1530 1529 1528 1527 1526 1525 1524 1523 1522 1521 1520 1518 1518 1517 1517 1516 1516 1515 1514 1513 1514 1514 1514 1514 1514 1515 1515 1516 1516 1517
1538 1538 1537 1536 1536 1535 1534 1534 1533 1532 1531 1530 1529 1528 1527 1526 1525 1524 1523 1522 1521 1520 1519 1518 1516 1515 1515 1514 1513 1512 1512 1511 1510 1510 1510 1508 1510 1509 1510 1510 1510 1511 1512
1537 1536 1536 1535 1534 1533 1533 1532 1531 1530 1529 1528 1527 1526 1525 1524 1523 1521 1520 1519 1518 1517 1516 1515 1514 1513 1512 1511 1510 1509 1508 1507 1506 1506 1506 1504 1504 1504 1504 1504 1505 1505 1506
1535 1535 1534 1534 1533 1532 1531 1530 1529 1528 1527 1526 1525 1524 1523 1521 1520 1518 1517 1515 1514 1514 1513 1511 1510 1509 1508 1507 1506 1505 1504 1502 1500 1500 1501 1500 1498 1498 1498 1498 1499 1499 1500
1534 1534 1533 1532 1531 1530 1529 1528 1527 1525 1524 1523 1522 1521 1520 1518 1517 1515 1514 1512 1510 1509 1508 1506 1505 1504 1503 1502 1502 1501 1499 1498 1496 1495 1495 1495 1493 1493 1491 1491 1492 1492 1493